Michipicoten — CFG8060 — position and weather

sailwx.info

Track history (hours):
 
Tides and Currents Weather Stations Pressure Air Temp Water Temp Dewpoint Dewpoint Depression Visibility Wind Speed Wind Dir Waves Ship Positions

Michipicoten

Last reported at 2014-Oct-24 06:32 UTC. Time now 2014-Oct-24 16:18 UTC.
Position N 46°31' W 084°23'.

Length 212 m.

Type: Ship. MMSI: 316002501.

Date/timePositionNaut miles runAvg speedWind from/ knotsBaromVisibWave heightAir tempDewpointWater temp
2014-Oct-24 06:32N 46°31' W 084°23'0 0.0
2014-Oct-24 05:22N 46°31' W 084°23'0 0.0
2014-Oct-24 04:33N 46°31' W 084°23'4 4.2
2014-Oct-24 03:33N 46°29' W 084°27'1010.3
2014-Oct-24 02:33N 46°33' W 084°41'1313.3
2014-Oct-24 01:33N 46°44' W 084°52'1211.8
2014-Oct-24 00:33N 46°48' W 085°09'1313.2
2014-Oct-23 23:33N 46°46' W 085°28'1413.5
2014-Oct-23 22:33N 46°44' W 085°47'5513.5
2014-Oct-23 18:27N 46°36' W 087°07'6 0.6
2014-Oct-23 08:24N 46°35' W 087°15'1213.7
2014-Oct-23 07:33N 46°37' W 086°58'1413.7
2014-Oct-23 06:33N 46°39' W 086°39'3313.9
2014-Oct-23 04:10N 46°44' W 085°51'913.9
2014-Oct-23 03:32N 46°45' W 085°38'1413.9
2014-Oct-23 02:30N 46°47' W 085°18'3911.9
2014-Oct-22 23:14N 46°28' W 084°28'4 6.1
2014-Oct-22 22:31N 46°31' W 084°23'8 1.3
2014-Oct-22 16:18N 46°27' W 084°33'1413.2
2014-Oct-22 15:13N 46°38' W 084°47'913.5
2014-Oct-22 14:31N 46°46' W 084°54'3112.8
2014-Oct-22 12:05N 46°45' W 085°39'  
2014-Oct-19 15:13N 46°15' W 084°06'16 9.4
2014-Oct-19 13:33N 46°02' W 083°54'3 3.0
2014-Oct-19 12:32N 45°59' W 083°53'0 0.0
2014-Oct-19 11:31N 45°59' W 083°53'0 0.1
2014-Oct-19 10:29N 45°59' W 083°53'0 0.0
2014-Oct-19 09:32N 45°59' W 083°53'0 0.0
2014-Oct-19 08:29N 45°59' W 083°53'0 0.0
2014-Oct-19 07:33N 45°59' W 083°53'0 0.0
2014-Oct-19 06:27N 45°59' W 083°53'0 0.0
2014-Oct-19 05:33N 45°59' W 083°53'0 0.0
2014-Oct-19 04:33N 45°59' W 083°53'0 0.0
2014-Oct-19 03:33N 45°59' W 083°53'0 0.0
2014-Oct-19 02:32N 45°59' W 083°53'1 1.0
2014-Oct-19 01:22N 45°58' W 083°53'23 0.6
2014-Oct-17 14:16N 46°15' W 083°32'21 1.7
2014-Oct-17 01:33N 46°03' W 083°57'1311.5
2014-Oct-17 00:25N 46°13' W 084°09'7 7.7
2014-Oct-16 23:27N 46°20' W 084°13'  
Track history (hours):
 
Tides and Currents Weather Stations Pressure Air Temp Water Temp Dewpoint Dewpoint Depression Visibility Wind Speed Wind Dir Waves Ship Positions

Michipicoten

Last reported at 2014-Oct-24 06:32 UTC. Time now 2014-Oct-24 16:18 UTC.
Position N 46°31' W 084°23'.

Length 212 m.

Type: Ship. MMSI: 316002501.

Date/timePositionNaut miles runAvg speedWind from/ knotsBaromVisibWave heightAir tempDewpointWater temp
2014-Oct-24 06:32N 46°31' W 084°23'0 0.0
2014-Oct-24 05:22N 46°31' W 084°23'0 0.0
2014-Oct-24 04:33N 46°31' W 084°23'4 4.2
2014-Oct-24 03:33N 46°29' W 084°27'1010.3
2014-Oct-24 02:33N 46°33' W 084°41'1313.3
2014-Oct-24 01:33N 46°44' W 084°52'1211.8
2014-Oct-24 00:33N 46°48' W 085°09'1313.2
2014-Oct-23 23:33N 46°46' W 085°28'1413.5
2014-Oct-23 22:33N 46°44' W 085°47'5513.5
2014-Oct-23 18:27N 46°36' W 087°07'6 0.6
2014-Oct-23 08:24N 46°35' W 087°15'1213.7
2014-Oct-23 07:33N 46°37' W 086°58'1413.7
2014-Oct-23 06:33N 46°39' W 086°39'3313.9
2014-Oct-23 04:10N 46°44' W 085°51'913.9
2014-Oct-23 03:32N 46°45' W 085°38'1413.9
2014-Oct-23 02:30N 46°47' W 085°18'3911.9
2014-Oct-22 23:14N 46°28' W 084°28'4 6.1
2014-Oct-22 22:31N 46°31' W 084°23'8 1.3
2014-Oct-22 16:18N 46°27' W 084°33'1413.2
2014-Oct-22 15:13N 46°38' W 084°47'913.5
2014-Oct-22 14:31N 46°46' W 084°54'3112.8
2014-Oct-22 12:05N 46°45' W 085°39'  
2014-Oct-19 15:13N 46°15' W 084°06'16 9.4
2014-Oct-19 13:33N 46°02' W 083°54'3 3.0
2014-Oct-19 12:32N 45°59' W 083°53'0 0.0
2014-Oct-19 11:31N 45°59' W 083°53'0 0.1
2014-Oct-19 10:29N 45°59' W 083°53'0 0.0
2014-Oct-19 09:32N 45°59' W 083°53'0 0.0
2014-Oct-19 08:29N 45°59' W 083°53'0 0.0
2014-Oct-19 07:33N 45°59' W 083°53'0 0.0
2014-Oct-19 06:27N 45°59' W 083°53'0 0.0
2014-Oct-19 05:33N 45°59' W 083°53'0 0.0
2014-Oct-19 04:33N 45°59' W 083°53'0 0.0
2014-Oct-19 03:33N 45°59' W 083°53'0 0.0
2014-Oct-19 02:32N 45°59' W 083°53'1 1.0
2014-Oct-19 01:22N 45°58' W 083°53'23 0.6
2014-Oct-17 14:16N 46°15' W 083°32'21 1.7
2014-Oct-17 01:33N 46°03' W 083°57'1311.5
2014-Oct-17 00:25N 46°13' W 084°09'7 7.7
2014-Oct-16 23:27N 46°20' W 084°13'  

Dump ship's entire track history